Pullman, WA

10:43 PM PDT on June 19, 2018 (GMT -0700)
Pullman-Moscow Regional

Weather History for KPUW - June, 2018

Change the Weather History Date:

Wednesday, June 13, 2018

  Actual Average Record
Temperature  
Mean Temperature 63 °F 58 °F  
Max Temperature 75 °F 71 °F 89 °F (1933)
Min Temperature 50 °F 45 °F 34 °F (1945)
Degree Days  
Heating Degree Days 2 7  
Month to date heating degree days 92 108  
Since 1 June heating degree days 92 108  
Since 1 July heating degree days 5952 6508  
Cooling Degree Days 0 0  
Month to date cooling degree days 4 0  
Year to date cooling degree days 12 5  
Since 1 June cooling degree days 4 0  
Growing Degree Days 13 (Base 50)    
Moisture  
Dew Point 42 °F    
Average Humidity 52    
Maximum Humidity 66    
Minimum Humidity 37    
Precipitation  
Precipitation 0.00 in 0.04 in 0.64 in (1980)
Month to date precipitation 0.80 0.50  
Year to date precipitation 10.96 9.01  
Sea Level Pressure  
Sea Level Pressure 29.84 in    
Wind  
Wind Speed 10 mph (West)    
Max Wind Speed 26 mph    
Max Gust Speed 33 mph    
Visibility 10 miles    
Events      
T = Trace of Precipitation, MM = Missing Value Source: NWS Daily Summary

Daily Weather History Graph

Daily Weather History Graph

Search for Another Location

Airport or City:

Astronomy

Jun. 13, 2018 Rise Set
Actual Time 4:54 AM PDT 8:43 PM PDT
Civil Twilight 4:14 AM PDT 9:22 PM PDT
Nautical Twilight 3:21 AM PDT 10:16 PM PDT
Astronomical Twilight 2:03 AM PDT 11:34 PM PDT
Moon 5:05 AM PDT (6/13) 8:39 PM PDT (6/13)
Length of Visible Light 17h 08m
Length of Day
15h 49m
Waning Crescent, 0% of the Moon is Illuminated
Jun 13
Waning Crescent
Jun 13
New
Jun 20
First Quarter
Jun 27
Full
Jul 6
Last Quarter

Hourly Weather History & Observations

Time (PDT) Temp. Dew Point Humidity Pressure Visibility Wind Dir Wind Speed Gust Speed Precip Events Conditions
12:53 AM 57.0 °F 39.9 °F 53% 29.89 in 10.0 mi Calm Calm - N/A   Clear
1:53 AM 54.0 °F 39.9 °F 59% 29.88 in 10.0 mi Calm Calm - N/A   Clear
2:53 AM 55.0 °F 39.0 °F 55% 29.87 in 10.0 mi Calm Calm - N/A   Clear
3:53 AM 53.1 °F 42.1 °F 66% 29.86 in 10.0 mi Calm Calm - N/A   Clear
4:53 AM 54.0 °F 42.1 °F 64% 29.86 in 10.0 mi Calm Calm - N/A   Clear
5:53 AM 55.9 °F 39.9 °F 55% 29.86 in 10.0 mi Calm Calm - N/A   Clear
6:53 AM 59.0 °F 44.1 °F 58% 29.85 in 10.0 mi ENE 3.5 mph - N/A   Clear
7:53 AM 62.1 °F 43.0 °F 50% 29.86 in 10.0 mi Calm Calm - N/A   Scattered Clouds
8:53 AM 66.9 °F 39.9 °F 37% 29.86 in 10.0 mi West 11.5 mph - N/A   Clear
9:53 AM 66.9 °F 41.0 °F 39% 29.86 in 10.0 mi WNW 12.7 mph - N/A   Partly Cloudy
10:53 AM 69.1 °F 43.0 °F 39% 29.84 in 10.0 mi West 10.4 mph - N/A   Mostly Cloudy
11:53 AM 71.1 °F 44.1 °F 38% 29.84 in 10.0 mi West 11.5 mph - N/A   Clear
12:53 PM 70.0 °F 43.0 °F 38% 29.83 in 10.0 mi WSW 10.4 mph - N/A   Mostly Cloudy
1:53 PM 70.0 °F 42.1 °F 36% 29.83 in 10.0 mi WSW 13.8 mph 21.9 mph N/A   Overcast
2:53 PM 73.0 °F 46.0 °F 38% 29.81 in 10.0 mi West 15.0 mph 23.0 mph N/A   Mostly Cloudy
3:53 PM 71.1 °F 46.0 °F 41% 29.80 in 10.0 mi West 15.0 mph 26.5 mph N/A   Partly Cloudy
4:53 PM 70.0 °F 46.0 °F 42% 29.78 in 10.0 mi West 16.1 mph 24.2 mph N/A   Scattered Clouds
5:53 PM 71.1 °F 45.0 °F 39% 29.77 in 10.0 mi West 18.4 mph 29.9 mph N/A   Clear
6:53 PM 69.1 °F 44.1 °F 40% 29.78 in 10.0 mi West 12.7 mph 27.6 mph N/A   Partly Cloudy
7:53 PM 64.9 °F 42.1 °F 43% 29.80 in 10.0 mi WSW 13.8 mph 19.6 mph N/A   Scattered Clouds
8:53 PM 60.1 °F 39.9 °F 47% 29.82 in 10.0 mi WSW 16.1 mph 25.3 mph N/A   Scattered Clouds
9:53 PM 57.9 °F 39.9 °F 51% 29.85 in 10.0 mi WSW 13.8 mph - N/A   Partly Cloudy
10:53 PM 55.0 °F 37.9 °F 53% 29.85 in 10.0 mi WSW 13.8 mph 23.0 mph N/A   Clear
11:53 PM 53.1 °F 39.9 °F 61% 29.87 in 10.0 mi West 9.2 mph - N/A   Clear